Location: Ahstedt
(52.2048°N, 10.1060°E)
Time: 19:52:44
(UTC+00:00)

Cosmos 2082 Rocket - Pass Details

Date: 17 April 2026
Orbit: 831 x 853 km, 71.0° (Epoch: 13 May)

Event Time Altitude Azimuth Distance (km) Brightness Sun altitude
Exits shadow 00:31:02 25° 124° (SE) 1,666 3.6 -25.5°
Maximum altitude 00:32:13 27° 104° (ESE) 1,594 3.6 -25.4°
Drops below altitude 10° 00:36:55 10° 49° (NE) 2,493 5.5 -25.2°
Sets 00:39:42 0° 37° (NE) 3,434 6.6 -25.0°
